Meteo orario Al Jadid

Oggi, 26 Ottobre, Lunedi

Tempo Temperatura Precipitazioni Vento Pressione Umidità
00:00 +23°C° 0 mm 2 m/s 762 mm Hg 82%
01:00 +23°C° 0 mm 2 m/s 762 mm Hg 84%
02:00 +21°C° 0 mm 2 m/s 762 mm Hg 85%
03:00 +21°C° 0 mm 2 m/s 762 mm Hg 86%
04:00 +21°C° 0 mm 2 m/s 762 mm Hg 88%
05:00 +21°C° 0 mm 2 m/s 762 mm Hg 87%
06:00 +21°C° 0 mm 2 m/s 762 mm Hg 86%
07:00 +23°C° 0 mm 2 m/s 763 mm Hg 86%
08:00 +24°C° 0 mm 1 m/s 763 mm Hg 78%
09:00 +25°C° 0 mm 1 m/s 763 mm Hg 70%
10:00 +26°C° 0 mm 1 m/s 763 mm Hg 63%
11:00 +27°C° 0 mm 2 m/s 763 mm Hg 59%
12:00 +28°C° 0 mm 3 m/s 762 mm Hg 54%
13:00 +28°C° 0 mm 3 m/s 761 mm Hg 50%
14:00 +28°C° 0 mm 4 m/s 761 mm Hg 52%
15:00 +27°C° 0 mm 4 m/s 761 mm Hg 54%
16:00 +27°C° 0 mm 5 m/s 761 mm Hg 57%
17:00 +26°C° 0 mm 4 m/s 761 mm Hg 61%
18:00 +25°C° 0 mm 4 m/s 761 mm Hg 66%
19:00 +23°C° 0 mm 4 m/s 762 mm Hg 71%
20:00 +23°C° 0 mm 4 m/s 762 mm Hg 71%
21:00 +23°C° 0 mm 4 m/s 762 mm Hg 70%
22:00 +22°C° 0 mm 3 m/s 762 mm Hg 70%
23:00 +22°C° 0 mm 3 m/s 762 mm Hg 68%

Domani, 27 Ottobre, Martedi

Tempo Temperatura Precipitazioni Vento Pressione Umidità
00:00 +22°C° 0 mm 3 m/s 762 mm Hg 65%
01:00 +21°C° 0 mm 3 m/s 761 mm Hg 63%
02:00 +21°C° 0 mm 3 m/s 761 mm Hg 66%
03:00 +20°C° 0 mm 2 m/s 761 mm Hg 70%
04:00 +20°C° 0 mm 2 m/s 761 mm Hg 73%
05:00 +20°C° 0 mm 2 m/s 761 mm Hg 72%
06:00 +20°C° 0 mm 2 m/s 761 mm Hg 71%
07:00 +22°C° 0 mm 1 m/s 761 mm Hg 70%
08:00 +24°C° 0 mm 2 m/s 762 mm Hg 62%
09:00 +25°C° 0 mm 2 m/s 762 mm Hg 55%
10:00 +27°C° 0 mm 2 m/s 762 mm Hg 47%
11:00 +28°C° 0 mm 2 m/s 761 mm Hg 45%
12:00 +28°C° 0 mm 3 m/s 761 mm Hg 43%
13:00 +29°C° 0 mm 3 m/s 760 mm Hg 40%
14:00 +28°C° 0 mm 3 m/s 760 mm Hg 43%
15:00 +28°C° 0 mm 4 m/s 759 mm Hg 46%
16:00 +27°C° 0 mm 4 m/s 759 mm Hg 49%
17:00 +26°C° 0 mm 4 m/s 759 mm Hg 52%
18:00 +26°C° 0 mm 4 m/s 759 mm Hg 55%
19:00 +25°C° 0 mm 4 m/s 760 mm Hg 59%
20:00 +25°C° 0 mm 4 m/s 760 mm Hg 58%
21:00 +23°C° 0 mm 4 m/s 760 mm Hg 57%
22:00 +23°C° 0 mm 4 m/s 760 mm Hg 56%
23:00 +23°C° 0 mm 4 m/s 760 mm Hg 55%

Dopodomani, 28 Ottobre, Mercoledi

Tempo Temperatura Precipitazioni Vento Pressione Umidità
00:00 +22°C° 0 mm 4 m/s 759 mm Hg 55%
01:00 +22°C° 0 mm 4 m/s 759 mm Hg 55%
02:00 +22°C° 0 mm 4 m/s 759 mm Hg 52%
03:00 +21°C° 0 mm 3 m/s 759 mm Hg 49%
04:00 +21°C° 0 mm 3 m/s 759 mm Hg 46%
05:00 +21°C° 0 mm 3 m/s 759 mm Hg 45%
06:00 +21°C° 0 mm 3 m/s 759 mm Hg 44%
07:00 +21°C° 0 mm 3 m/s 760 mm Hg 42%
08:00 +24°C° 0 mm 3 m/s 760 mm Hg 42%
09:00 +26°C° 0 mm 4 m/s 760 mm Hg 43%
10:00 +28°C° 0 mm 5 m/s 761 mm Hg 43%
11:00 +28°C° 0 mm 6 m/s 761 mm Hg 46%
12:00 +28°C° 0 mm 7 m/s 760 mm Hg 49%
13:00 +28°C° 0 mm 7 m/s 760 mm Hg 52%
14:00 +27°C° 0 mm 7 m/s 760 mm Hg 56%
15:00 +26°C° 0 mm 7 m/s 761 mm Hg 60%
16:00 +24°C° 0 mm 7 m/s 761 mm Hg 64%
17:00 +23°C° 0 mm 7 m/s 762 mm Hg 64%
18:00 +23°C° 0 mm 6 m/s 762 mm Hg 64%
19:00 +22°C° 0 mm 6 m/s 763 mm Hg 63%
20:00 +22°C° 0 mm 5 m/s 763 mm Hg 64%
21:00 +21°C° 0 mm 5 m/s 763 mm Hg 64%
22:00 +21°C° 0 mm 5 m/s 764 mm Hg 65%
23:00 +21°C° 0 mm 4 m/s 763 mm Hg 64%

29 Ottobre, Giovedi

Tempo Temperatura Precipitazioni Vento Pressione Umidità
00:00 +20°C° 0 mm 4 m/s 763 mm Hg 63%
01:00 +20°C° 0 mm 3 m/s 763 mm Hg 62%
02:00 +20°C° 0 mm 3 m/s 763 mm Hg 64%
03:00 +19°C° 0 mm 3 m/s 763 mm Hg 66%
04:00 +19°C° 0 mm 2 m/s 763 mm Hg 68%
05:00 +19°C° 0 mm 2 m/s 764 mm Hg 65%
06:00 +20°C° 0 mm 2 m/s 764 mm Hg 63%
07:00 +20°C° 0 mm 2 m/s 764 mm Hg 60%
08:00 +21°C° 0 mm 2 m/s 765 mm Hg 56%
09:00 +24°C° 0 mm 2 m/s 765 mm Hg 52%
10:00 +25°C° 0 mm 3 m/s 765 mm Hg 48%
11:00 +26°C° 0 mm 4 m/s 765 mm Hg 47%
12:00 +26°C° 0 mm 4 m/s 764 mm Hg 47%
13:00 +26°C° 0 mm 5 m/s 764 mm Hg 46%
14:00 +26°C° 0 mm 5 m/s 764 mm Hg 49%
15:00 +25°C° 0 mm 5 m/s 764 mm Hg 51%
16:00 +25°C° 0 mm 5 m/s 764 mm Hg 54%
17:00 +23°C° 0 mm 5 m/s 764 mm Hg 57%
18:00 +22°C° 0 mm 4 m/s 765 mm Hg 61%
19:00 +22°C° 0 mm 3 m/s 765 mm Hg 64%
20:00 +21°C° 0 mm 3 m/s 765 mm Hg 64%
21:00 +21°C° 0 mm 3 m/s 766 mm Hg 64%
22:00 +21°C° 0 mm 3 m/s 766 mm Hg 64%
23:00 +20°C° 0 mm 3 m/s 766 mm Hg 63%

30 Ottobre, Venerdi

Tempo Temperatura Precipitazioni Vento Pressione Umidità
00:00 +20°C° 0 mm 2 m/s 766 mm Hg 62%
01:00 +19°C° 0 mm 2 m/s 766 mm Hg 61%
02:00 +19°C° 0 mm 2 m/s 766 mm Hg 64%
03:00 +19°C° 0 mm 2 m/s 765 mm Hg 67%
04:00 +18°C° 0 mm 2 m/s 765 mm Hg 70%
05:00 +19°C° 0 mm 2 m/s 766 mm Hg 70%
06:00 +19°C° 0 mm 2 m/s 766 mm Hg 70%
07:00 +20°C° 0 mm 2 m/s 766 mm Hg 69%
08:00 +21°C° 0 mm 2 m/s 766 mm Hg 63%
09:00 +24°C° 0 mm 2 m/s 766 mm Hg 57%
10:00 +25°C° 0 mm 3 m/s 766 mm Hg 50%
11:00 +26°C° 0 mm 3 m/s 766 mm Hg 47%
12:00 +26°C° 0 mm 3 m/s 765 mm Hg 43%
13:00 +27°C° 0 mm 3 m/s 765 mm Hg 40%
14:00 +27°C° 0 mm 4 m/s 765 mm Hg 43%
15:00 +26°C° 0 mm 5 m/s 765 mm Hg 45%
16:00 +26°C° 0 mm 5 m/s 764 mm Hg 48%
17:00 +24°C° 0 mm 6 m/s 765 mm Hg 55%
18:00 +23°C° 0 mm 6 m/s 765 mm Hg 62%
19:00 +22°C° 0 mm 6 m/s 765 mm Hg 68%
20:00 +22°C° 0 mm 5 m/s 765 mm Hg 68%
21:00 +22°C° 0 mm 5 m/s 765 mm Hg 68%
22:00 +21°C° 0 mm 5 m/s 765 mm Hg 68%
23:00 +21°C° 0 mm 4 m/s 765 mm Hg 71%

31 Ottobre, Sabato

Tempo Temperatura Precipitazioni Vento Pressione Umidità
00:00 +20°C° 0 mm 4 m/s 765 mm Hg 74%
01:00 +20°C° 0 mm 4 m/s 765 mm Hg 76%
02:00 +19°C° 0 mm 4 m/s 765 mm Hg 78%
03:00 +19°C° 0 mm 3 m/s 765 mm Hg 80%
04:00 +19°C° 0 mm 3 m/s 764 mm Hg 81%
05:00 +19°C° 0 mm 3 m/s 764 mm Hg 80%
06:00 +19°C° 0 mm 3 m/s 764 mm Hg 78%
07:00 +19°C° 0 mm 3 m/s 765 mm Hg 77%
Mostrare altro

Abbiamo bisogno del tuo consenso

Meteoprog e i nostri fornitori di servizi possono memorizzare e accedere a dati personali come cookie, identificatori di dispositivi o altre tecnologie simili sul tuo dispositivo e possono elaborare tali dati per personalizzare i contenuti e gli annunci, nonché fornire funzionalità dei social media e analizzarne il traffico.

  • Archiviare e/o accedere alle informazioni sul tuo dispositivo

    Cookie, identificatori di dispositivi o altre informazioni possono essere memorizzati o resi accessibili sul tuo dispositivo per le finalità sopra indicate.

  • Annunci e contenuti personalizzati, misurazione di annunci e contenuti, approfondimenti sul pubblico e sviluppo di prodotti

    Gli annunci e i contenuti possono essere personalizzati in base a un profilo. È possibile aggiungere più dati per personalizzare meglio annunci e contenuti. È possibile misurare il rendimento degli annunci e dei contenuti. È possibile ricavare informazioni sul pubblico che ha visto gli annunci e i contenuti. Tali dati possono essere utilizzati per sviluppare o migliorare l'esperienza, i sistemi e il software dell'utente.

Cliccando su “Accetto”, acconsenti all'uso di cookie, identificatori di dispositivo, web beacon o altre tecnologie simili. Puoi modificare le impostazioni nel browser del tuo dispositivo.

Per determinati scopi, è possibile fare affidamento su interessi legali, piuttosto che sul consenso. Puoi approfondire questo argomento consultando la nostra Informativa sulla privacy e sui cookie.